GSAT-8 (GAGAN/PRN 127)

Last updated on Aug. 7, 2020, 5:36 a.m. UTC

1 37605U 11022A   20219.89937311  .00000073  00000-0  00000-0 0  9992
2 37605   0.0139 100.3826 0002670 151.6714  82.6355  1.00272140 31758
UTC
Height (km)
Latitude
Longitude
Inclination
Orbital Period
UTC large
Height (km)
Speed (km/s)
/
Latitude / Longitude
Inclination (degrees)
Orbital Period (minutes)
Azimuth
Elevation
Range (km)
Doppler Factor
iOS Compass Heading
iOS Angle

Next 30 passes for location: Hong Kong

Rise time Rise Azimuth (degrees) Set time Set Azimuth (degrees) Duration Max altitude (degrees)

No matching passes for this satellites